Temperature
11 11 11 11 11 11 11 11 11 10 10 10 10 11 11 11 11 11 11 11 11 11 11 11 11 11 11 11 11 11 11 11 11 11 11 11 11 10
11 11 11 11 11 11 11 11 11 11 10 10 10 10 10 10 11 11 11 11 11 11 11 11 11 11 11 11 11 11 10 10 11 11 11 11 10 10
10 10 10 11 11 11 10 10 10 10 10 10 10 10 10 10 11 11 11 11 11 11 11 11 11 11 10 10 10 10 10 10 10 10 10 10 10 10
10 10 10 10 10 10 10 10 10 10 10 10 10 10 10 10 10 10 10 10 10 10 10 10 10 10 10 10 10 10 10 10 10 10 10 10 10 10
10 10 10 10 10 10 10 10 10 10 10 10 10 9 9 10 10 10 10 10 10 10 10 10 10 10 10 10 10 10 10 10 10 10 9 9 9 9
10 10 10 10 10 10 10 10 9 9 9 9 9 9 9 9 9 9 10 10 10 10 10 10 10 10 10 9 10 9 9 9 9 9 9 9 9 9
9 9 9 9 9 9 9 9 9 9 9 9 9 9 9 9 9 9 9 9 9 9 9 9 9 9 9 9 9 9 9 9 9 9 9 9 9 9
9 9 9 9 9 9 9 9 9 9 9 9 9 9 9 9 9 8 8 8 9 9 9 9 9 9 9 9 9 9 9 9 9 9 9 9 9 9
9 9 9 9 8 9 9 9 8 8 8 8 8 8 8 8 8 8 8 8 8 8 8 8 8 8 9 9 8 8 8 8 8 8 8 8 8 8
8 8 8 8 8 8 8 8 8 8 8 8 8 8 8 8 8 8 8 8 8 8 8 8 8 8 8 8 8 8 8 8 8 8 8 8 8 8
8 8 8 8 8 8 8 8 8 8 8 8 7 7 7 7 7 7 7 7 7 8 7 7 7 7 8 8 8 8 8 8 8 8 8 8 8 8
7 7 7 7 7 7 7 7 7 7 7 7 7 7 7 7 7 7 7 7 7 7 7 7 7 7 7 7 7 7 8 7 7 7 7 7 7 7
7 7 7 7 7 7 7 6 7 7 7 7 7 7 7 7 7 7 6 6 6 6 7 6 7 7 6 6 7 7 7 7 7 7 7 7 7 7
7 7 6 6 6 6 6 6 6 6 6 6 6 6 6 6 6 6 6 6 6 6 6 6 6 6 6 6 6 7 7 7 7 7 7 7 7 7
6 6 6 6 6 6 6 6 6 5 5 5 5 5 5 5 5 6 6 6 6 6 6 6 6 6 6 6 6 6 6 6 6 6 6 6 6 7
6 6 5 5 5 5 5 5 5 5 5 5 5 5 5 5 5 5 5 5 5 6 6 5 5 5 5 5 5 5 5 5 6 6 6 6 6 6
5 5 5 5 5 5 4 4 4 4 4 4 4 4 4 4 4 4 5 5 5 5 5 5 5 5 5 5 5 5 5 5 5 5 6 6 6 6
5 5 4 4 4 4 4 4 4 4 4 4 4 4 4 4 4 4 4 4 4 4 4 4 5 5 5 5 5 5 5 5 5 5 5 5 5 6
4 4 4 4 4 4 3 3 3 3 3 3 3 3 3 3 3 3 3 3 4 4 4 4 4 4 4 4 4 4 4 4 5 5 5 5 5 5
4 4 3 3 3 3 3 3 3 3 3 3 3 3 3 3 3 3 3 3 3 3 3 3 3 3 4 4 4 4 4 4 4 4 4 4 5 5
3 3 3 3 3 3 2 2 2 2 2 2 2 2 2 2 2 2 2 2 3 3 3 3 3 3 3 3 3 3 4 4 3 4 4 4 4 4
3 3 2 2 2 2 2 2 2 2 2 1 1 1 2 2 2 2 2 2 2 2 2 2 2 2 2 2 3 3 3 3 3 3 3 3 3 4
2 2 2 2 2 2 2 1 1 1 1 1 1 1 1 1 1 1 1 1 1 1 2 2 2 2 2 2 2 2 2 3 3 3 3 3 3 3
Wind_Speed
1 1 1 0 1 1 2 3 3 1 2 2 2 2 2 2 2 1 1 1 1 1 1 1 1 1 2 3 3 3 3 3 3 3 2 3 3 3
1 1 1 0 1 1 1 1 2 3 2 2 2 2 2 2 2 1 1 1 2 2 2 2 1 2 2 3 3 3 3 3 3 3 2 2 2 2
1 1 0 0 0 0 1 1 1 2 2 2 1 2 2 2 3 2 1 1 1 2 2 2 1 2 3 3 4 4 4 4 3 3 3 2 2 1
0 1 0 0 0 1 1 1 1 1 2 2 1 1 2 2 1 1 1 1 1 1 1 2 1 2 3 4 4 4 4 4 4 4 3 3 2 3
1 1 1 1 0 1 1 1 1 1 1 2 1 1 1 1 1 2 2 2 2 1 0 1 1 1 2 4 4 4 4 4 5 5 4 4 4 3
1 1 1 2 2 2 1 1 1 1 1 1 1 1 1 1 1 1 2 2 1 2 2 1 1 1 1 2 4 4 4 5 5 5 5 5 4 4
1 1 2 2 2 2 1 2 2 1 1 1 1 1 1 0 1 1 1 1 2 1 1 1 1 0 1 2 3 4 4 4 5 5 5 5 5 5
1 2 2 1 2 2 2 2 3 3 3 2 2 2 3 2 1 1 0 1 2 1 1 1 0 1 2 2 3 3 4 4 5 5 5 5 5 6
1 1 2 2 2 1 2 2 2 3 4 4 3 4 3 4 3 1 2 2 2 2 1 1 1 1 3 4 4 4 5 5 5 5 6 6 6 6
1 2 2 2 2 0 0 1 1 1 2 3 4 4 4 4 5 4 4 2 1 1 1 1 1 2 2 3 4 4 5 5 5 5 5 5 6 6
2 2 2 2 2 0 2 1 1 3 2 2 3 3 3 3 3 2 2 1 1 2 1 2 1 1 1 2 4 4 5 5 6 6 6 5 5 5
2 2 3 3 2 1 2 2 2 3 1 1 1 2 1 2 3 4 4 3 2 2 2 2 1 0 1 2 1 3 3 4 5 5 6 5 5 4
2 2 3 4 3 3 2 3 4 2 2 1 1 1 1 1 2 2 3 4 3 3 3 2 1 1 1 1 2 2 2 2 3 4 4 5 5 4
3 3 3 3 3 3 2 2 2 1 1 1 0 1 1 2 2 3 3 4 4 4 4 4 2 3 2 1 2 2 2 2 2 2 3 4 5 5
3 3 3 3 2 2 2 2 1 1 1 1 1 2 2 2 2 1 2 2 2 3 3 3 3 3 3 3 2 2 2 2 2 2 3 3 3 3
2 3 3 2 1 1 1 1 0 1 2 2 2 2 1 1 1 1 1 1 1 2 2 2 3 3 3 2 2 2 2 2 2 2 2 3 3 3
1 1 0 0 0 1 1 1 1 0 1 1 1 1 1 1 1 1 1 1 1 1 2 2 1 0 2 3 2 3 2 2 2 2 1 2 3 4
2 2 2 2 2 2 2 2 2 2 1 1 1 1 1 1 1 1 1 1 1 2 1 1 1 1 1 1 2 3 2 3 2 2 1 2 4 4
2 2 2 2 2 2 2 2 2 2 2 2 2 2 1 1 1 1 1 1 1 2 2 1 1 1 1 2 3 2 3 2 2 2 2 3 4 5
1 2 2 2 2 2 2 2 2 2 1 2 2 2 1 1 1 1 1 1 2 2 2 1 1 2 4 4 3 3 4 3 2 2 2 3 3 5
2 2 2 2 2 2 2 2 2 2 1 1 1 2 2 2 2 2 2 2 2 1 2 3 3 3 1 0 1 3 3 3 3 2 2 2 2 2
3 3 3 3 3 3 2 2 2 2 2 2 2 2 2 2 2 2 2 2 2 2 2 2 2 1 1 2 3 3 3 3 4 4 3 3 2 2
4 4 3 3 3 3 2 3 3 3 2 2 2 2 2 2 2 2 2 2 2 2 2 2 2 1 1 2 3 3 3 3 2 3 4 6 6 7
Wind_Direction
89 101 123 197 147 156 160 166 162 191 267 280 300 318 338 344 318 296 238 233 210 201 169 138 138 129 134 135 130 140 141 148 152 151 154 165 172 173
89 76 44 265 166 154 156 170 161 165 207 244 254 284 309 332 336 349 259 253 227 203 183 186 184 181 180 169 166 170 164 161 161 166 151 159 174 196
45 87 48 317 179 187 144 132 134 140 179 265 287 306 327 341 354 1 347 339 275 233 217 213 211 206 205 189 186 190 187 188 187 185 184 174 183 198
19 89 35 23 138 217 161 164 165 163 168 226 284 308 313 308 332 348 355 341 301 275 227 221 237 239 221 207 198 198 202 202 200 198 195 192 210 223
183 159 196 106 331 267 190 178 182 158 153 185 261 287 313 328 359 352 5 12 343 345 286 244 255 259 225 207 199 202 209 213 212 206 205 210 220 233
233 211 222 200 213 225 215 193 168 142 134 148 261 300 310 317 28 352 344 350 336 356 348 302 274 260 255 222 211 208 210 213 214 209 209 216 226 236
282 268 253 228 223 218 214 193 173 159 161 174 231 292 296 279 248 245 280 319 327 355 17 346 342 346 284 260 230 212 211 213 212 210 212 219 229 237
263 289 286 277 268 272 271 226 188 180 189 190 211 231 243 224 208 213 162 39 297 303 71 309 22 264 267 251 246 222 209 215 221 219 220 226 232 240
229 284 307 312 312 285 286 278 242 231 203 182 193 221 223 214 185 187 200 200 235 257 142 258 289 266 265 257 241 230 229 224 223 224 224 227 234 239
227 242 259 293 305 254 214 320 302 278 234 200 199 219 225 214 193 190 196 204 291 287 162 209 265 265 277 261 241 235 229 228 229 229 229 228 228 234
252 256 254 254 290 256 151 199 293 297 279 250 223 220 231 217 175 128 130 137 266 276 202 181 231 285 290 269 251 252 246 241 230 229 227 225 232 239
273 275 274 271 272 247 183 188 228 258 274 309 302 304 282 242 200 180 183 186 201 246 234 181 205 55 301 288 257 262 260 254 241 237 231 233 238 235
242 268 272 273 262 251 222 204 229 228 205 208 268 311 316 290 239 217 199 192 198 227 225 180 190 178 203 283 303 268 246 260 252 252 247 241 240 231
229 244 257 265 257 251 239 232 233 181 130 134 181 279 275 274 269 245 236 232 222 223 222 192 189 188 180 223 279 295 277 267 245 238 255 264 256 246
232 235 249 260 255 253 262 252 173 132 137 164 231 254 261 263 270 283 272 263 279 271 240 205 190 192 186 202 231 262 288 283 243 237 254 256 254 251
259 246 244 240 221 248 270 286 186 182 178 204 230 259 282 292 288 266 254 250 309 308 307 242 211 179 187 208 210 244 254 249 272 259 251 259 265 257
199 145 93 128 264 302 305 291 265 221 225 236 223 244 271 286 290 299 276 209 210 264 301 329 353 187 198 198 214 234 245 254 254 259 250 269 275 264
168 177 202 212 221 231 239 255 260 251 244 235 230 231 238 246 272 298 293 243 235 246 266 281 4 18 2 329 232 219 237 253 260 260 239 243 273 276
167 203 210 220 234 235 236 237 241 243 230 217 221 228 232 248 261 274 282 286 278 273 270 275 221 166 220 269 291 253 234 260 260 264 251 241 257 275
200 216 224 224 226 235 239 241 245 247 235 228 224 225 221 224 241 263 266 267 268 281 293 288 255 228 223 233 247 290 279 248 245 251 263 270 270 284
229 236 237 235 229 230 241 239 229 226 234 228 232 231 222 213 232 243 251 272 278 262 265 270 274 287 265 176 283 299 305 291 264 256 257 270 285 295
229 235 242 243 236 228 231 237 227 220 217 220 236 233 226 216 226 234 239 251 257 259 270 292 313 324 294 232 253 273 300 322 324 314 286 266 247 249
231 230 233 238 236 230 225 226 223 221 217 219 225 231 230 228 230 231 237 239 251 272 282 301 323 321 293 262 258 271 287 305 318 326 312 318 305 289
Height
1520 1521 1521 1521 1522 1522 1522 1522 1522 1520 1520 1520 1520 1519 1519 1518 1516 1515 1515 1515 1515 1515 1515 1515 1514 1514 1514 1515 1515 1515 1516 1517 1518 1519 1521 1522 1523 1524
1518 1518 1519 1519 1519 1519 1519 1519 1520 1520 1519 1518 1518 1518 1517 1515 1515 1514 1514 1514 1514 1514 1513 1513 1513 1513 1513 1514 1515 1515 1516 1517 1517 1519 1520 1521 1522 1523
1516 1516 1516 1517 1517 1517 1517 1517 1517 1517 1517 1516 1516 1516 1514 1513 1513 1512 1512 1512 1512 1512 1512 1512 1512 1512 1512 1513 1514 1514 1515 1516 1517 1518 1518 1519 1520 1521
1514 1514 1514 1514 1514 1514 1515 1515 1515 1515 1515 1514 1514 1513 1512 1512 1511 1511 1511 1511 1511 1511 1510 1510 1511 1511 1511 1512 1512 1513 1514 1515 1516 1516 1517 1518 1518 1519
1512 1512 1512 1512 1512 1512 1512 1512 1512 1513 1512 1512 1511 1511 1511 1510 1509 1509 1509 1509 1509 1509 1509 1509 1509 1509 1510 1510 1511 1511 1512 1513 1514 1514 1515 1516 1517 1517
1510 1510 1510 1510 1510 1510 1510 1510 1510 1510 1510 1509 1509 1509 1509 1508 1508 1507 1507 1507 1507 1507 1507 1507 1507 1508 1508 1508 1509 1509 1510 1511 1512 1512 1513 1514 1514 1515
1508 1508 1508 1508 1508 1508 1508 1507 1507 1507 1507 1507 1507 1506 1506 1506 1506 1506 1505 1505 1505 1505 1505 1505 1505 1505 1506 1506 1506 1507 1508 1508 1509 1510 1510 1511 1512 1512
1506 1505 1505 1505 1505 1505 1505 1505 1505 1504 1504 1504 1504 1504 1504 1504 1504 1504 1503 1503 1503 1504 1503 1503 1503 1503 1503 1504 1504 1504 1505 1506 1507 1507 1508 1508 1509 1509
1503 1503 1502 1502 1502 1502 1502 1502 1502 1501 1502 1501 1501 1501 1501 1501 1501 1501 1501 1501 1501 1501 1501 1500 1501 1500 1501 1501 1502 1502 1503 1503 1504 1504 1505 1505 1506 1506
1500 1500 1499 1499 1499 1499 1499 1498 1498 1498 1498 1498 1498 1499 1499 1499 1499 1499 1499 1499 1499 1499 1499 1498 1498 1498 1498 1499 1499 1499 1500 1500 1500 1501 1502 1502 1503 1503
1497 1497 1496 1496 1496 1496 1495 1495 1495 1495 1495 1495 1495 1496 1496 1496 1497 1497 1496 1496 1496 1496 1496 1496 1495 1495 1495 1496 1496 1496 1496 1497 1497 1497 1498 1499 1499 1500
1494 1493 1493 1493 1492 1492 1492 1492 1492 1492 1492 1492 1492 1492 1493 1493 1494 1494 1494 1494 1493 1493 1494 1494 1493 1493 1492 1493 1493 1493 1493 1493 1493 1494 1495 1495 1496 1496
1490 1490 1489 1489 1489 1488 1488 1488 1488 1488 1488 1489 1489 1489 1489 1489 1490 1490 1491 1491 1491 1491 1491 1491 1490 1490 1490 1490 1490 1491 1490 1490 1490 1491 1491 1492 1492 1492
1486 1486 1486 1485 1485 1485 1485 1485 1485 1485 1485 1485 1485 1485 1485 1486 1486 1486 1487 1487 1488 1488 1488 1488 1488 1488 1488 1487 1487 1487 1488 1487 1487 1488 1488 1488 1488 1488
1482 1482 1482 1482 1481 1481 1481 1481 1482 1481 1481 1482 1482 1482 1482 1482 1483 1483 1483 1483 1484 1484 1484 1484 1485 1485 1485 1484 1484 1484 1484 1484 1484 1484 1484 1484 1484 1484
1478 1478 1479 1478 1478 1478 1478 1478 1478 1478 1478 1478 1479 1479 1479 1479 1479 1479 1479 1480 1480 1480 1481 1481 1481 1481 1481 1481 1481 1481 1481 1481 1481 1481 1481 1480 1480 1480
1474 1474 1474 1474 1474 1474 1475 1475 1475 1475 1475 1475 1475 1476 1476 1476 1476 1476 1476 1476 1476 1476 1477 1477 1478 1478 1478 1478 1478 1478 1478 1477 1477 1477 1477 1476 1476 1476
1470 1469 1470 1470 1470 1471 1471 1471 1471 1471 1471 1472 1472 1473 1473 1473 1473 1473 1474 1474 1474 1474 1474 1474 1474 1474 1474 1475 1475 1474 1474 1474 1473 1473 1473 1472 1472 1472
1466 1465 1466 1466 1467 1467 1467 1467 1467 1468 1468 1469 1469 1470 1470 1470 1470 1471 1471 1471 1471 1471 1471 1471 1471 1471 1470 1470 1471 1472 1471 1470 1470 1469 1469 1469 1468 1467
1462 1462 1462 1462 1463 1463 1463 1463 1464 1464 1465 1465 1466 1466 1467 1467 1467 1468 1468 1468 1467 1468 1468 1468 1468 1468 1468 1468 1468 1468 1468 1467 1466 1465 1465 1465 1464 1464
1458 1458 1458 1459 1459 1459 1460 1460 1460 1460 1461 1462 1462 1463 1464 1464 1464 1465 1465 1465 1465 1464 1464 1464 1465 1465 1465 1465 1465 1464 1464 1464 1463 1462 1461 1461 1460 1459
1454 1454 1455 1455 1455 1456 1456 1456 1456 1457 1458 1458 1459 1460 1460 1461 1461 1462 1462 1462 1462 1462 1462 1462 1462 1462 1462 1462 1461 1461 1460 1460 1460 1460 1459 1458 1457 1456
1451 1450 1451 1451 1452 1452 1452 1453 1453 1453 1454 1455 1456 1457 1457 1458 1458 1458 1459 1459 1459 1459 1459 1459 1459 1459 1459 1459 1458 1458 1457 1457 1456 1456 1455 1455 1455 1454